Retour au catalogue

DELTA 1 DEB

ActifLEO
NORAD 9701·DEBRIS·🇺🇸 United States

Lancé Nov 6, 1973 depuis Vandenberg Space Force Base

Loading…

Prochains Passages (prochaines 24 heures)

TLE

FraisSource: Space-Track

Époque: Sep 13, 2026, 04:59 UTC

1  9701U 73086FZ  26256.20797938  .00004198  00000-0  88575-2 0  9994
2  9701 102.7348 159.8564 0021554 102.7578  51.1183 13.31783696461950

Suivez DELTA 1 DEB en temps réel avec AllMySat

Download on the App Store